Regional Weather Roundup
Issued by NWS

Home | Current Version | Previous Version | Text Only | Print | Product List | Glossary Off
Versions: 1 2 3 4 5 6 7 8 9 10 11 12 13 14 15 16 17 18 19 20 21 22 23 24 25 26 27 28 29 30 31 32 33 34 35 36 37 38 39 40 41 42 43 44 45 46 47 48 49 50

000
ASUS43 KLOT 290000
RWRIL

ILLINOIS REGIONAL WEATHER ROUNDUP
NATIONAL WEATHER SERVICE CHICAGO/ROMEOVILLE IL
600 PM CST FRI NOV 28 2014

NOTE: "FAIR" INDICATES FEW OR NO CLOUDS BELOW 12,000 FEET WITH NO
SIGNIFICANT WEATHER AND/OR OBSTRUCTIONS TO VISIBILITY.

* THESE STATIONS ARE NOT UNDER NWS QUALITY CONTROL. THEY ALSO MAY NOT
  REPORT WEATHER SUCH AS PRECIPITATION OR FOG.

ILZ001-002-007-009-015-016-024-290100-
NORTHWEST ILLINOIS

CITY           SKY/WX    TMP DP  RH WIND       PRES   REMARKS
MOLINE         MOCLDY    33  28  81 SE8       29.87F WCI  26
6HR MIN TEMP:  30; 6HR MAX TEMP:  36;

STERLING*      MOCLDY    34  28  80 SE7       29.91F WCI  28
$$

ILZ003-004-008-010-011-017-018-290100-
NORTH CENTRAL ILLINOIS

CITY           SKY/WX    TMP DP  RH WIND       PRES   REMARKS
ROCKFORD       CLOUDY    32  27  81 SE10      29.93F WCI  24
6HR MIN TEMP:  26; 6HR MAX TEMP:  32;

$$

ILZ005-006-012>014-019>023-290100-
NORTHEAST ILLINOIS

CITY           SKY/WX    TMP DP  RH WIND       PRES   REMARKS
CHICAGO-OHARE  CLOUDY    32  25  75 S14       29.98R WCI  22
6HR MIN TEMP:  27; 6HR MAX TEMP:  32;

CHICAGO-MIDWAY CLOUDY    34  25  69 S12G20    29.99S WCI  25
6HR MIN TEMP:  30; 6HR MAX TEMP:  34;

AURORA         CLOUDY    34  28  79 S10       29.96F WCI  26
6HR MIN TEMP:  28; 6HR MAX TEMP:  34;

WAUKEGAN       CLOUDY    31  23  72 SE12      29.96F WCI  22
6HR MIN TEMP:  25; 6HR MAX TEMP:  31;

DUPAGE AIRPORT CLOUDY    32  27  81 SE13      29.95F WCI  22
6HR MIN TEMP:  27; 6HR MAX TEMP:  32;

WHEELING       CLOUDY    32  25  75 S13       29.99F WCI  22
6HR MIN TEMP:  26; 6HR MAX TEMP:  32;

NORTHERLY ISL    N/A     32  24  73 S13         N/A  WCI  22
$$

LMZ740>746-290100-
SOUTHERN LAKE MICHIGAN

STATION/POSITION SKY/WX   TEMP    WIND        PRES    VSBY  WAVE
                          AIR SEA DIR/SP/G                  HT/PER
                          (F)     (DEG/KT/KT) (MB)    (MI)  (FT/S)
SOUTHERN BUOY              35 42  180/ 19/ 25 1016.6F         5/ 6
WAUKEGAN HARBOR            32     180/ 16/ 19   N/A
HARRISON CRIB              32     170/ 21/ 25   N/A
BURNHAM HARBOR             32     150/  8/ 16   N/A
CALUMET HARBOR             32     140/  9/ 15 1014.9F
MICHIGAN CITY              30     140/ 14/ 17   N/A
$$

ILZ025>027-034>036-040-047-049-050-058-095>099-290100-
WEST-CENTRAL ILLINOIS

CITY           SKY/WX    TMP DP  RH WIND       PRES   REMARKS
QUINCY         PTCLDY    36  31  82 SE8       29.85S WCI  30
$$

ILZ028>032-037-038-041>044-048-051>054-059>061-290100-
CENTRAL ILLINOIS

CITY           SKY/WX    TMP DP  RH WIND       PRES   REMARKS
DECATUR        PTCLDY    36  31  82 S10       29.99R WCI  28
PEORIA         MOCLDY    37  30  75 S12       29.94F WCI  29
6HR MIN TEMP:  33; 6HR MAX TEMP:  39;

SPRINGFIELD    CLEAR     39  30  70 S15       29.94S WCI  31
6HR MIN TEMP:  35; 6HR MAX TEMP:  40;

TAYLORVILLE    NOT AVBL
$$

ILZ033-039-045-046-055>057-062-063-290100-
EAST-CENTRAL ILLINOIS

CITY           SKY/WX    TMP DP  RH WIND       PRES   REMARKS
CHAMPAIGN      MOCLDY    35  30  82 S16       30.01R WCI  25
MATTOON        PTCLDY    36  30  79 S14       30.00S WCI  27
$$

ILZ079-100>102-290100-
SOUTHWEST ILLINOIS

CITY           SKY/WX    TMP DP  RH WIND       PRES   REMARKS
CAHOKIA*       PTCLDY    45  34  65 S7        29.96R
$$

ILZ064>066-069>071-074>076-080>082-084>086-088>090-092>094-290100-
SOUTH-CENTRAL ILLINOIS

CITY           SKY/WX    TMP DP  RH WIND       PRES   REMARKS
CARBONDALE     PTCLDY    43  28  55 S13       30.03F
6HR MIN TEMP:  43; 6HR MAX TEMP:  48;

MARION         PTCLDY    45  30  57 S9G16     30.05F
MT. VERNON     MOCLDY    39  28  65 S8        30.04F WCI  34
$$

ILZ067-068-072-073-078-083-087-091-290100-
SOUTHEAST ILLINOIS

CITY           SKY/WX    TMP DP  RH WIND       PRES   REMARKS
LAWRENCEVILLE  MOCLDY    37  29  72 S12       30.08F WCI  29
$$

ABBREVIATIONS USED IN REMARKS
   TC - TEMPERATURE IN CELSIUS
  WCI - WIND CHILL INDEX
   HX - HEAT INDEX
  VSB - VISIBILITY
$$




USA.gov is the U.S. government's official web portal to all federal, state and local government web resources and services.